Regional Weather Roundup
Issued by NWS

Home | Current Version | Previous Version | Text Only | Print | Product List | Glossary Off
Versions: 1 2 3 4 5 6 7 8 9 10 11 12 13 14 15 16 17 18 19 20 21 22 23 24 25 26 27 28 29 30 31 32 33 34 35 36 37 38 39 40 41 42 43 44 45 46 47 48 49

000
ASUS45 KBOU 271107
RWRCO

WEATHER ROUNDUP FOR COLORADO
NATIONAL WEATHER SERVICE DENVER/BOULDER CO
500 AM MDT SUN JUL 27 2014

NOTE: "FAIR" INDICATES FEW OR NO CLOUDS BELOW 12000 FEET WITH NO
SIGNIFICANT WEATHER AND/OR OBSTRUCTIONS TO VISIBILITY.

COZ001>005-013-030-031-271200-
...NORTHWEST COLORADO...

CITY           SKY/WX    TMP DP  RH WIND       PRES   REMARKS
CRAIG          MOCLDY    48  48 100 CALM      30.34S
HAYDEN         MOCLDY    55  46  71 SE10      30.36S
MEEKER         MOCLDY    58  48  69 NE7       30.34S
MOUNT WERNER   NOT AVBL
STEAMBOAT SPGS MOCLDY    50  47  90 CALM      30.39S
WALDEN         CLEAR     39  36  87 E8        30.48S
$$

COZ006>008-011-271200-
...WEST CENTRAL VALLEYS...

CITY           SKY/WX    TMP DP  RH WIND       PRES   REMARKS
GRAND JUNCTION PTCLDY    66  51  58 S5        30.20R
MONTROSE       CLEAR     62  50  64 S7        30.28R
EAGLE          PTCLDY    52  50  93 E5        30.44S
RIFLE          MOCLDY    60  53  77 SE5       30.29S
DELTA          CLEAR     67  48  51 NE7       30.24R
NUCLA          CLEAR     64  45  48 SE5       30.29S
$$

COZ017>023-064>068-271200-
...SOUTHWEST COLORADO...

CITY           SKY/WX    TMP DP  RH WIND       PRES   REMARKS
DURANGO        MOCLDY    63  47  55 N10       30.35S
CORTEZ         CLEAR     61  47  59 SE5       30.28R
PAGOSA SPRINGS MOCLDY    62  46  55 CALM      30.44R
TELLURIDE      CLEAR     59  45  58 SE8       30.51
WOLF CREEK PAS NOT AVBL
$$

COZ009-010-012-014-032>034-037-058>063-271200-
...CENTRAL COLORADO...

CITY           SKY/WX    TMP DP  RH WIND       PRES   REMARKS
ASPEN          CLEAR     47  41  80 VRB5      30.44S
BUENA VISTA    CLEAR     51  45  82 N3        30.48S
COPPER MTN     CLEAR     54  32  43 NW6       30.76S
BERTHOUD PASS  FAIR      46  32  57 CALM      30.81S
COTTONWOOD PAS CLEAR     55  43  62 CALM      30.60S
GUNNISON       CLEAR     52  45  76 N3        30.49S
KREMMLING        N/A     46  43  87 CALM      30.49R FOG
LEADVILLE      CLEAR     40  38  93 CALM      30.60S
MONARCH PASS   CLEAR     50  41  71 W8        30.85S
SALIDA         CLEAR    N/A N/A N/A SW6       30.54S
SUNLIGHT       CLOUDY    59  36  41 CALM      30.67R
WILKERSON PASS NOT AVBL
$$

COZ069>075-271200-
...SAN LUIS VALLEY/SANGRE DE CRISTO MOUNTAINS...

CITY           SKY/WX    TMP DP  RH WIND       PRES   REMARKS
ALAMOSA        PTCLDY    55  50  83 CALM      30.42F
LA VETA PASS   PTCLDY    52  45  76 SW7       30.60S
SAGUACHE       CLEAR     54  46  76 NW10      30.47R
$$

COZ035-036-038>040-271200-
...NORTHERN COLORADO FRONT RANGE...

CITY           SKY/WX    TMP DP  RH WIND       PRES   REMARKS
DENVER INTL AP PTCLDY    60  53  77 SW7       30.27R
DMNS CITY PARK   N/A     62  54  73 NW2       30.28R
AURORA         PTCLDY    58  54  84 SW6       30.30R
FRONT RANGE AP NOT AVBL
ERIE MUNI ARPT CLEAR     61  55  82 NW6       30.28R
BOULDER MUN AP CLEAR     63  50  63 NW6       30.29R
CENTENNIAL     PTCLDY    61  52  72 W6        30.31R
BROOMFIELD     CLEAR     63  52  67 NW15      30.30R
FORT COLLINS   CLEAR     61  55  82 N10       30.30R
LONGMONT       CLEAR     64  55  70 NW9       30.30R
$$

COZ041-046-047-076>085-087-088-271200-
...PIKES PEAK/PALMER DIVIDE AND SOUTHERN FOOTHILLS...

CITY           SKY/WX    TMP DP  RH WIND       PRES   REMARKS
COLO. SPRINGS  PTCLDY    62  51  67 N5        30.33S
A. F. ACADEMY  CLEAR     55  52  89 N5        30.35R
ELLICOTT       CLEAR     61  50  67 E8        30.31F
FALCON         CLEAR     58  50  75 CALM      30.38S
FORT CARSON    CLEAR     59  53  81 W6        30.31R
LIMON          PTCLDY    62  58  86 E5        30.29R
MONUMENT HILL  CLEAR     54  46  76 SW6       30.37S
TRINIDAD       MOCLDY    66  55  67 W7        30.29S
$$

COZ042>045-048>051-090-091-271200-
...NORTHEAST COLORADO...

CITY           SKY/WX    TMP DP  RH WIND       PRES   REMARKS
GREELEY ARPT   CLEAR     61  55  82 NE7       30.27R
AKRON          CLEAR     63  61  93 SE9       30.27R
BURLINGTON     MOCLDY    64  60  87 E5        30.24R
WRAY             N/A    N/A N/A N/A N6        30.23R
STERLING       CLEAR     64  63  94 NE7       30.24R
HOLYOKE        CLEAR     61  59  94 CALM      30.23R
FORT MORGAN    CLEAR     62  60  93 E8        30.27R
$$

COZ086-089-092>099-271200-
...SOUTHEAST COLORADO...

CITY           SKY/WX    TMP DP  RH WIND       PRES   REMARKS
PUEBLO         CLEAR     62  58  86 N5        30.23R
LA JUNTA       PTCLDY    66  61  84 N3        30.19S
LAMAR          CLOUDY    65  63  93 CALM      30.16R
SPRINGFIELD      N/A     65  62  90 N5        30.19R
$$


USA.gov is the U.S. government's official web portal to all federal, state and local government web resources and services.